{"data":{"norad_id":54152,"epoch":"2026-05-25T02:52:15.441888Z","epoch_age_seconds":71513,"freshness":"FRESH","line1":"1 54152U 22139C   26145.11962317  .00000017  00000+0  50833-4 0  9992","line2":"2 54152  82.5065   2.3816 0019719 282.0944  77.7926 12.42889326162788","mean_motion":12.42889326,"eccentricity":0.0019719,"inclination_deg":82.5065,"raan_deg":2.3816,"arg_perigee_deg":282.0944,"mean_anomaly_deg":77.7926,"bstar":5.0833e-5,"rev_number":16278,"period_min":115.85906885486,"perigee_km":1478.8548932062,"apogee_km":1509.9025206512,"semimajor_km":7872.5157069287,"source":"CELESTRAK","updated_at":"2026-05-25T13:37:58.619129Z"}}